• Processing (Info)

  • MPEC 2005-E45 : 2005 ES70

    The following Minor Planet Electronic Circular may be linked-to from your own Web pages, but must not otherwise be redistributed electronically.

    A form allowing access to any MPEC is at the bottom of this page.


    Read MPEC 2005-E44 Read MPEC 2005-E46


    M.P.E.C. 2005-E45                                Issued 2005 Mar. 10, 12:21 UT
    
         The Minor Planet Electronic Circulars contain information on unusual
             minor planets and routine data on comets.  They are published
       on behalf of Commission 20 of the International Astronomical Union by the
              Minor Planet Center, Smithsonian Astrophysical Observatory,
                              Cambridge, MA 02138, U.S.A.
    
                      Supported in part by the Brinson Foundation
                 Prepared using the Tamkin Foundation Computer Network
    
                                  MPC@CFA.HARVARD.EDU
              URL http://cfa-www.harvard.edu/iau/mpc.html  ISSN 1523-6714
    
                                       2005 ES70
    
    Observations:
         K05E70S* C2005 03 09.32837 11 56 21.31 +28 40 27.3          18.1 R EE045703
         K05E70S  C2005 03 09.33829 11 56 06.54 +28 39 48.6          19.0 R EE045703
         K05E70S  C2005 03 09.34819 11 55 51.92 +28 39 10.1          18.7 R EE045703
         K05E70S  C2005 03 09.35812 11 55 37.31 +28 38 30.7          18.3 R EE045703
         K05E70S  C2005 03 09.40933 11 54 21.61 +28 35 02.0          18.7 R EE045703
         K05E70S  C2005 03 09.41721 11 54 09.88 +28 34 29.0          18.0 R EE045703
         K05E70S  C2005 03 09.42508 11 53 58.25 +28 33 55.5          17.9 R EE045703
         K05E70S  C2005 03 09.43296 11 53 46.66 +28 33 22.8          18.2 R EE045703
         K05E70S  C2005 03 10.29176 11 32 59.49 +27 27 30.6          18.4 R EE045651
         K05E70S  C2005 03 10.29260 11 32 58.13 +27 27 26.1          18.4 R EE045651
         K05E70S  C2005 03 10.29345 11 32 56.85 +27 27 22.0          18.4 R EE045651
         K05E70S  C2005 03 10.33889 11 31 46.95 +27 23 22.8          18.1 R EE045G96
         K05E70S  C2005 03 10.34598 11 31 36.03 +27 22 45.2          18.5 R EE045G96
         K05E70S  C2005 03 10.35312 11 31 25.03 +27 22 07.5          18.5 R EE045G96
         K05E70S  C2005 03 10.36021 11 31 14.16 +27 21 29.3          18.3 R EE045G96
    
    Observer details:
    651 Grasslands Observatory, Tucson.  Observer J. E. McGaha.  0.62-m f/5.1
        Newtonian reflector + CCD.
    703 Catalina Sky Survey.  Observer R. Hill.  Measurers E. C. Beshore,
        C. M. Casey, E. J. Christensen, G. J. Garradd, R. E. Hill, S. M. Larson,
        R. H. McNaught.  0.68-m Schmidt + CCD.
    G96 Mt. Lemmon Survey.  Observer E. J. Christensen.  Measurers E. C. Beshore,
        C. M. Casey, E. J. Christensen, G. J. Garradd, R. E. Hill, S. M. Larson,
        R. H. McNaught.  1.5-m reflector + CCD.
    
    Orbital elements:
    2005 ES70
    Epoch 2005 Feb. 19.0 TT = JDT 2453420.5                 MPC
    M 161.91174              (2000.0)            P               Q
    n   1.47294147     Peri.  351.04913     +0.96272187     +0.26715817
    a   0.7650310      Node   353.00860     -0.22162272     +0.68930679
    e   0.3810309      Incl.   20.35824     -0.15508053     +0.67341122
    P   0.67           H   23.4           G   0.15
    From 15 observations 2005 Mar. 9-10.
    
    Ephemeris:
    2005 ES70                a,e,i = 0.77, 0.38, 20                  q = 0.4735
    Date    TT    R. A. (2000) Decl.     Delta      r     Elong.  Phase     V
    2005 03 11    11 15.31   +26 21.0    0.065    1.054   157.3    21.3    18.6
    2005 03 12    10 50.14   +24 28.4    0.064    1.053   157.0    21.7    18.6
    2005 03 13    10 25.30   +22 16.9    0.064    1.052   154.8    23.7    18.6
    2005 03 14    10 01.39   +19 51.4    0.064    1.051   151.2    27.1    18.8
    2005 03 15    09 38.88   +17 17.8    0.065    1.050   146.7    31.3    18.9
    2005 03 16    09 18.09   +14 42.2    0.067    1.048   141.9    35.8    19.1
    2005 03 17    08 59.16   +12 10.0    0.070    1.047   137.1    40.3    19.3
    2005 03 18    08 42.10   +09 44.9    0.073    1.046   132.3    44.7    19.5
    2005 03 19    08 26.83   +07 29.4    0.076    1.044   127.9    48.8    19.7
    2005 03 20    08 13.22   +05 24.8    0.080    1.042   123.7    52.6    19.9
    2005 03 21    08 01.11   +03 31.3    0.084    1.041   119.8    56.1    20.2
    2005 03 22    07 50.33   +01 48.5    0.089    1.039   116.3    59.3    20.4
    2005 03 23    07 40.73   +00 15.8    0.094    1.037   113.0    62.2    20.6
    2005 03 24    07 32.15   -01 07.8    0.099    1.035   110.0    64.9    20.7
    2005 03 25    07 24.47   -02 23.1    0.104    1.033   107.2    67.3    20.9
    2005 03 26    07 17.57   -03 31.1    0.109    1.030   104.6    69.5    21.1
    2005 03 27    07 11.35   -04 32.6    0.115    1.028   102.2    71.6    21.3
    2005 03 28    07 05.73   -05 28.3    0.120    1.026    99.9    73.5    21.4
    2005 03 29    07 00.62   -06 19.0    0.126    1.023    97.8    75.2    21.6
    2005 03 30    06 55.97   -07 05.2    0.131    1.020    95.8    76.8    21.7
    2005 03 31    06 51.71   -07 47.5    0.137    1.018    94.0    78.3    21.9
    2005 04 01    06 47.80   -08 26.3    0.143    1.015    92.2    79.7    22.0
    2005 04 02    06 44.20   -09 02.0    0.148    1.012    90.5    81.1    22.1
    2005 04 03    06 40.88   -09 35.0    0.154    1.009    88.9    82.3    22.2
    2005 04 04    06 37.79   -10 05.4    0.160    1.006    87.4    83.5    22.4
    2005 04 05    06 34.91   -10 33.7    0.165    1.002    85.9    84.6    22.5
    2005 04 06    06 32.22   -11 00.0    0.171    0.999    84.5    85.7    22.6
    2005 04 07    06 29.70   -11 24.6    0.177    0.995    83.1    86.7    22.7
    2005 04 08    06 27.32   -11 47.5    0.182    0.992    81.8    87.7    22.8
    2005 04 09    06 25.07   -12 08.9    0.188    0.988    80.5    88.7    22.9
    2005 04 10    06 22.93   -12 29.1    0.193    0.984    79.3    89.6    23.0
    
    Timothy B. Spahr             (C) Copyright 2005 MPC           M.P.E.C. 2005-E45
    

    Read MPEC 2005-E44 Read MPEC 2005-E46


    MPEC number:

    Enter an MPEC number in one of the following forms:

    • 1997-B01 (the full form)
    • J97B01 (the packed version of the full form)
    • B01 (the abbreviated form)